Location: Peebles
(55.6412°N, 3.1714°W)
Time: 23:54:31
(UTC+01:00)

USA 281 - Pass Details

Date: 03 February 2022
Orbit: 1070 x 1089 km, 106.0° (Epoch: 25 March)

Event Time Altitude Azimuth Distance (km) Brightness Sun altitude
Rises 01:56:12 0° 30° (NNE) 3,908 6.9 -47.3°
Reaches altitude 10° 01:58:51 10° 36° (NE) 2,948 6.0 -47.1°
Enters shadow 02:01:01 21° 45° (NE) 2,219 5.2 -47.0°
